When you browse on this site, cookies collect data to enhance your experience and personalize the content and advertising you see.
Visit our Privacy Policy to learn more. By continuing to use the site, you agree to this use of cookies and data.
  • In Austria
  • List of Countries
  • For 7 days
  • Water Temperature
  • Weather Map
  • News
  • Weather Widgets
  • user-avatar
    Login

    Hourly Weather Mineral del Monte

    Today, 18 August, Sunday

    Time Temperature Precipitation Wind Pressure Humidity
    00:00 +10°C° 0 mm 1 mps 544 mmHg 87%
    01:00 +9°C° 0 mm 0 mps 544 mmHg 87%
    02:00 +9°C° 0 mm 0 mps 544 mmHg 86%
    03:00 +9°C° 0 mm 0 mps 544 mmHg 86%
    04:00 +8°C° 0 mm 0 mps 543 mmHg 85%
    05:00 +8°C° 0 mm 0 mps 543 mmHg 85%
    06:00 +10°C° 0 mm 0 mps 545 mmHg 78%
    07:00 +12°C° 0 mm 0 mps 546 mmHg 70%
    08:00 +14°C° 0 mm 0 mps 548 mmHg 63%
    09:00 +18°C° 0 mm 1 mps 549 mmHg 56%
    10:00 +19°C° 0 mm 2 mps 549 mmHg 48%
    11:00 +20°C° 0 mm 3 mps 550 mmHg 41%
    12:00 +21°C° 0 mm 3 mps 549 mmHg 42%
    13:00 +21°C° 0 mm 4 mps 549 mmHg 44%
    14:00 +21°C° 0 mm 5 mps 548 mmHg 45%
    15:00 +20°C° 0.1 mm 4 mps 548 mmHg 56%
    16:00 +18°C° 0.1 mm 4 mps 547 mmHg 66%
    17:00 +15°C° 0.1 mm 4 mps 546 mmHg 77%
    18:00 +14°C° 0.2 mm 3 mps 546 mmHg 82%
    19:00 +13°C° 0.2 mm 3 mps 545 mmHg 88%
    20:00 +12°C° 0.2 mm 2 mps 545 mmHg 94%
    21:00 +12°C° 0 mm 2 mps 545 mmHg 94%
    22:00 +10°C° 0 mm 2 mps 545 mmHg 95%
    23:00 +10°C° 0 mm 2 mps 545 mmHg 95%

    Tomorrow, 19 August, Monday

    Time Temperature Precipitation Wind Pressure Humidity
    00:00 +11°C° 0 mm 1 mps 545 mmHg 95%
    01:00 +11°C° 0 mm 1 mps 544 mmHg 95%
    02:00 +11°C° 0 mm 1 mps 544 mmHg 95%
    03:00 +10°C° 0 mm 1 mps 544 mmHg 95%
    04:00 +10°C° 0 mm 1 mps 544 mmHg 95%
    05:00 +10°C° 0 mm 1 mps 544 mmHg 95%
    06:00 +11°C° 0 mm 1 mps 545 mmHg 89%
    07:00 +12°C° 0 mm 2 mps 546 mmHg 83%
    08:00 +13°C° 0 mm 2 mps 547 mmHg 77%
    09:00 +14°C° 0 mm 3 mps 548 mmHg 70%
    10:00 +17°C° 0 mm 4 mps 548 mmHg 62%
    11:00 +17°C° 0 mm 5 mps 549 mmHg 55%
    12:00 +17°C° 0.1 mm 5 mps 548 mmHg 56%
    13:00 +17°C° 0.1 mm 6 mps 548 mmHg 57%
    14:00 +17°C° 0.1 mm 6 mps 547 mmHg 58%
    15:00 +16°C° 0 mm 6 mps 547 mmHg 63%
    16:00 +14°C° 0 mm 5 mps 546 mmHg 69%
    17:00 +13°C° 0 mm 5 mps 546 mmHg 74%
    18:00 +12°C° 0 mm 4 mps 546 mmHg 80%
    19:00 +11°C° 0 mm 3 mps 545 mmHg 87%
    20:00 +10°C° 0 mm 2 mps 545 mmHg 94%
    21:00 +9°C° 0 mm 2 mps 545 mmHg 93%
    22:00 +9°C° 0 mm 2 mps 545 mmHg 92%
    23:00 +8°C° 0 mm 2 mps 545 mmHg 92%

    Day after tomorrow, 20 August, Tuesday

    Time Temperature Precipitation Wind Pressure Humidity
    00:00 +8°C° 0 mm 2 mps 544 mmHg 91%
    01:00 +8°C° 0 mm 1 mps 544 mmHg 91%
    02:00 +8°C° 0 mm 1 mps 543 mmHg 91%
    03:00 +7°C° 0 mm 1 mps 543 mmHg 91%
    04:00 +7°C° 0 mm 1 mps 543 mmHg 91%
    05:00 +6°C° 0 mm 1 mps 543 mmHg 92%
    06:00 +8°C° 0 mm 1 mps 544 mmHg 84%
    07:00 +9°C° 0 mm 2 mps 546 mmHg 76%
    08:00 +12°C° 0 mm 2 mps 547 mmHg 68%
    09:00 +13°C° 0 mm 3 mps 548 mmHg 63%
    10:00 +15°C° 0 mm 4 mps 549 mmHg 59%
    11:00 +16°C° 0 mm 5 mps 549 mmHg 55%
    12:00 +16°C° 0.1 mm 5 mps 549 mmHg 57%
    13:00 +16°C° 0.1 mm 6 mps 548 mmHg 60%
    14:00 +16°C° 0.1 mm 6 mps 548 mmHg 62%
    15:00 +15°C° 0.1 mm 5 mps 547 mmHg 67%
    16:00 +14°C° 0.1 mm 5 mps 547 mmHg 73%
    17:00 +12°C° 0.1 mm 4 mps 546 mmHg 78%
    18:00 +11°C° 0.1 mm 4 mps 546 mmHg 83%
    19:00 +11°C° 0.1 mm 3 mps 546 mmHg 88%
    20:00 +10°C° 0.1 mm 3 mps 546 mmHg 93%
    21:00 +9°C° 0.1 mm 2 mps 546 mmHg 94%
    22:00 +9°C° 0.1 mm 2 mps 546 mmHg 94%
    23:00 +10°C° 0.1 mm 1 mps 546 mmHg 95%

    21 August, Wednesday

    Time Temperature Precipitation Wind Pressure Humidity
    00:00 +10°C° 0 mm 1 mps 546 mmHg 94%
    01:00 +9°C° 0 mm 1 mps 545 mmHg 94%
    02:00 +9°C° 0 mm 1 mps 545 mmHg 94%
    03:00 +9°C° 0 mm 1 mps 545 mmHg 93%
    04:00 +9°C° 0 mm 1 mps 545 mmHg 93%
    05:00 +9°C° 0 mm 1 mps 545 mmHg 93%
    06:00 +10°C° 0 mm 1 mps 546 mmHg 87%
    07:00 +11°C° 0 mm 1 mps 546 mmHg 82%
    08:00 +12°C° 0 mm 1 mps 547 mmHg 77%
    09:00 +14°C° 0 mm 2 mps 548 mmHg 69%
    10:00 +14°C° 0 mm 3 mps 548 mmHg 61%
    11:00 +17°C° 0 mm 3 mps 549 mmHg 54%
    12:00 +17°C° 0.2 mm 4 mps 548 mmHg 57%
    13:00 +17°C° 0.2 mm 4 mps 548 mmHg 61%
    14:00 +16°C° 0.2 mm 5 mps 547 mmHg 65%
    15:00 +15°C° 0.2 mm 4 mps 547 mmHg 69%
    16:00 +14°C° 0.2 mm 4 mps 546 mmHg 74%
    17:00 +12°C° 0.2 mm 4 mps 546 mmHg 78%
    18:00 +11°C° 0 mm 3 mps 546 mmHg 83%
    19:00 +10°C° 0 mm 2 mps 545 mmHg 88%
    20:00 +9°C° 0 mm 2 mps 545 mmHg 93%
    21:00 +10°C° 0 mm 1 mps 545 mmHg 93%
    22:00 +10°C° 0 mm 1 mps 546 mmHg 92%
    23:00 +10°C° 0 mm 1 mps 546 mmHg 92%

    22 August, Thursday

    Time Temperature Precipitation Wind Pressure Humidity
    00:00 +10°C° 0 mm 1 mps 545 mmHg 92%
    01:00 +9°C° 0 mm 1 mps 545 mmHg 92%
    02:00 +9°C° 0 mm 1 mps 544 mmHg 92%
    03:00 +9°C° 0 mm 1 mps 544 mmHg 92%
    04:00 +9°C° 0 mm 1 mps 544 mmHg 91%
    05:00 +7°C° 0 mm 0 mps 544 mmHg 91%
    06:00 +9°C° 0 mm 0 mps 546 mmHg 84%
    07:00 +12°C° 0 mm 0 mps 547 mmHg 76%
    08:00 +14°C° 0 mm 0 mps 548 mmHg 69%
    09:00 +16°C° 0.4 mm 1 mps 549 mmHg 66%
    10:00 +18°C° 0.4 mm 1 mps 549 mmHg 63%
    11:00 +19°C° 0.4 mm 1 mps 549 mmHg 60%
    12:00 +19°C° 1.5 mm 1 mps 549 mmHg 62%
    13:00 +19°C° 1.5 mm 1 mps 548 mmHg 63%
    14:00 +19°C° 1.5 mm 1 mps 548 mmHg 65%
    15:00 +17°C° 1.8 mm 2 mps 547 mmHg 71%
    16:00 +16°C° 1.8 mm 2 mps 547 mmHg 77%
    17:00 +15°C° 1.8 mm 2 mps 546 mmHg 83%
    18:00 +14°C° 2.9 mm 2 mps 546 mmHg 86%
    19:00 +13°C° 2.9 mm 1 mps 546 mmHg 90%
    20:00 +12°C° 2.9 mm 1 mps 546 mmHg 94%
    21:00 +12°C° 3.8 mm 1 mps 546 mmHg 93%
    22:00 +12°C° 3.8 mm 1 mps 546 mmHg 93%
    23:00 +11°C° 3.8 mm 1 mps 546 mmHg 93%

    23 August, Friday

    Time Temperature Precipitation Wind Pressure Humidity
    00:00 +11°C° 1.5 mm 1 mps 546 mmHg 93%
    01:00 +11°C° 1.5 mm 1 mps 546 mmHg 93%
    02:00 +11°C° 1.5 mm 1 mps 546 mmHg 93%
    03:00 +11°C° 0.4 mm 1 mps 546 mmHg 92%
    04:00 +11°C° 0.4 mm 1 mps 546 mmHg 92%
    05:00 +12°C° 0.4 mm 1 mps 546 mmHg 91%
    06:00 +12°C° 0 mm 1 mps 547 mmHg 86%
    07:00 +13°C° 0 mm 1 mps 547 mmHg 81%
    08:00 +14°C° 0 mm 1 mps 548 mmHg 76%
    09:00 +16°C° 0.5 mm 1 mps 549 mmHg 71%
    10:00 +18°C° 0.5 mm 1 mps 549 mmHg 66%
    11:00 +20°C° 0.5 mm 1 mps 550 mmHg 60%
    12:00 +19°C° 2 mm 1 mps 549 mmHg 65%
    13:00 +17°C° 2 mm 2 mps 548 mmHg 70%
    14:00 +16°C° 2 mm 2 mps 547 mmHg 74%
    15:00 +15°C° 0.9 mm 2 mps 546 mmHg 78%
    16:00 +14°C° 0.9 mm 2 mps 546 mmHg 81%
    17:00 +13°C° 0.9 mm 2 mps 545 mmHg 84%
    18:00 +13°C° 0.3 mm 2 mps 545 mmHg 85%
    19:00 +13°C° 0.3 mm 2 mps 546 mmHg 85%
    20:00 +12°C° 0.3 mm 2 mps 546 mmHg 86%
    21:00 +12°C° 0 mm 1 mps 546 mmHg 86%
    22:00 +12°C° 0 mm 1 mps 546 mmHg 86%
    23:00 +12°C° 0 mm 1 mps 546 mmHg 86%
    Show more